sat.trackr.live / text

‹ back to catalog

STARLINK-36250

NORAD 68513 · 2026-068F

PAYLOAD ACTIVE UNKNOWN

§ Identity

Operator
Country
US
Launch date
2026-03-30
Launch site
AFETR
Launch vehicle
Mass (kg)
RCS (m²)

Purposes: comms

External: N2YO · Heavens-Above · Gunter

§ Orbital elements

Epoch: 2026-05-25T05:30:45.468288Z

Period
93.85 min
Inclination
53.1605°
Eccentricity
0.0002654
Mean motion
15.34425476 rev/d
Perigee alt
460.8 km
Apogee alt
464.4 km
Semi-major
6,840.8 km
B*
1.0699e-3
RAAN
132.3199°
Arg perigee
97.8618°
Mean anomaly
262.2686°
Rev number
868

§ Raw data

STARLINK-362501 68513U 26068F   26145.22969292  .00035975  00000+0  10699-2 0  99992 68513  53.1605 132.3199 0002654  97.8618 262.2686 15.34425476  8684

JSON: /api/v1/satellites/68513 · /tle

For live sub-satellite position, see the globe view (requires WebGL).

§ Visibility from observer

Set your observer location to see the next 7 days of passes ≥ 10°. The values pass through the URL so the page stays shareable.

No JS? Fill the form by hand. The geolocation button needs JavaScript.